WZZ92 LHBP-EPWR

Flight info

Callsign WZZ92
Flight time 0h 41m
Altitude 24000
Route LITKU Y301 KALIF DCT KREMI DCT BILNA DCT SOPAV DCT REGLI L617 EPOPA
Aircraft A20N/M-SDE1E2E3FGIJ1J4RWXY/LB1

Departure

Time 2026-05-07 18:14
Airport Budapest Liszt Ferenc International Airport (LHBP)

Arrival

Time 2026-05-07 18:55
Airport Copernicus Wrocław Airport (EPWR)
Time Latitude Longitude Altitude Speed Heading
2026-05-07 17:45 47.43582 19.25855 473 ft 0 kts 311°
2026-05-07 18:06 47.43574 19.25867 473 ft 2 kts 311°
2026-05-07 18:06 47.43564 19.25883 474 ft 1 kts 311°
2026-05-07 18:06 47.43558 19.25893 474 ft 1 kts 294°
2026-05-07 18:06 47.43557 19.25915 474 ft 2 kts 249°
2026-05-07 18:07 47.43561 19.25927 474 ft 1 kts 223°
2026-05-07 18:07 47.43567 19.25933 475 ft 0 kts 221°
2026-05-07 18:11 47.43562 19.25926 474 ft 10 kts 221°
2026-05-07 18:11 47.43512 19.25859 472 ft 14 kts 229°
2026-05-07 18:11 47.43536 19.25704 470 ft 12 kts 298°
2026-05-07 18:11 47.43498 19.25592 468 ft 14 kts 225°
2026-05-07 18:12 47.43418 19.25489 466 ft 15 kts 221°
2026-05-07 18:12 47.43337 19.25376 463 ft 16 kts 222°
2026-05-07 18:12 47.43243 19.25250 459 ft 19 kts 221°
2026-05-07 18:12 47.43134 19.25107 453 ft 22 kts 223°
2026-05-07 18:13 47.43125 19.24898 446 ft 23 kts 309°
2026-05-07 18:13 47.43295 19.24609 439 ft 73 kts 313°
2026-05-07 18:13 47.43828 19.23748 439 ft 149 kts 311°
2026-05-07 18:13 47.44594 19.22501 910 ft 171 kts 311°
2026-05-07 18:14 47.45372 19.21267 1905 ft 167 kts 311°
2026-05-07 18:14 47.46144 19.20038 2774 ft 171 kts 310°
2026-05-07 18:14 47.46982 19.18687 3478 ft 188 kts 310°
2026-05-07 18:14 47.47904 19.17195 4204 ft 207 kts 311°
2026-05-07 18:15 47.48968 19.15679 4952 ft 225 kts 317°
2026-05-07 18:15 47.50237 19.14113 5687 ft 249 kts 319°
2026-05-07 18:15 47.51637 19.12424 6437 ft 273 kts 319°
2026-05-07 18:15 47.53182 19.10559 6872 ft 309 kts 319°
2026-05-07 18:16 47.54942 19.08434 7396 ft 338 kts 319°
2026-05-07 18:16 47.56779 19.06217 8692 ft 342 kts 319°
2026-05-07 18:16 47.58569 19.04052 10279 ft 335 kts 319°
2026-05-07 18:16 47.60325 19.01928 11848 ft 328 kts 318°
2026-05-07 18:17 47.62037 18.99863 13372 ft 320 kts 319°
2026-05-07 18:17 47.63938 18.98341 14742 ft 322 kts 342°
2026-05-07 18:17 47.66189 18.98202 15830 ft 334 kts
2026-05-07 18:17 47.68312 18.99592 16793 ft 345 kts 37°
2026-05-07 18:18 47.70092 19.02002 17780 ft 350 kts 45°
2026-05-07 18:18 47.71817 19.04537 18687 ft 357 kts 45°
2026-05-07 18:18 47.73616 19.07153 19627 ft 362 kts 45°
2026-05-07 18:18 47.75435 19.09734 20498 ft 367 kts 44°
2026-05-07 18:19 47.77298 19.12342 21329 ft 372 kts 44°
2026-05-07 18:19 47.79185 19.14964 22112 ft 377 kts 44°
2026-05-07 18:19 47.81098 19.17621 22874 ft 381 kts 45°
2026-05-07 18:19 47.83048 19.20336 23544 ft 387 kts 45°
2026-05-07 18:20 47.85015 19.23080 23919 ft 402 kts 45°
2026-05-07 18:20 47.87110 19.26012 23975 ft 424 kts 45°
2026-05-07 18:20 47.89333 19.29122 23979 ft 447 kts 44°
2026-05-07 18:20 47.91611 19.32308 23978 ft 467 kts 44°
2026-05-07 18:21 47.94026 19.35689 23972 ft 486 kts 44°
2026-05-07 18:21 47.96560 19.39243 23968 ft 503 kts 44°
2026-05-07 18:21 47.99135 19.42856 23972 ft 518 kts 44°
2026-05-07 18:21 48.01778 19.46565 23971 ft 530 kts 44°
2026-05-07 18:22 48.04467 19.50350 23935 ft 525 kts 44°
2026-05-07 18:22 48.06261 19.52787 23915 ft 508 kts 40°
2026-05-07 18:22 48.10273 19.56190 23963 ft 505 kts 19°
2026-05-07 18:22 48.13670 19.57508 23976 ft 507 kts
2026-05-07 18:23 48.17157 19.58405 23977 ft 507 kts
2026-05-07 18:23 48.20634 19.59145 23977 ft 507 kts
2026-05-07 18:23 48.24126 19.59543 23975 ft 505 kts 360°
2026-05-07 18:23 48.27647 19.59526 23981 ft 505 kts 355°
2026-05-07 18:24 48.31155 19.59226 23983 ft 504 kts 353°
2026-05-07 18:24 48.34623 19.58846 23978 ft 505 kts 353°
2026-05-07 18:24 48.38141 19.58453 23980 ft 505 kts 353°
2026-05-07 18:24 48.41599 19.58091 23983 ft 505 kts 353°
2026-05-07 18:25 48.45116 19.57730 23984 ft 505 kts 352°
2026-05-07 18:25 48.48511 19.56654 23963 ft 497 kts 335°
2026-05-07 18:25 48.51451 19.54061 23979 ft 486 kts 315°
2026-05-07 18:25 48.53651 19.50334 23986 ft 475 kts 298°
2026-05-07 18:26 48.55367 19.46071 23995 ft 473 kts 295°
2026-05-07 18:26 48.57017 19.41835 23991 ft 474 kts 295°
2026-05-07 18:26 48.58693 19.37563 23989 ft 475 kts 295°
2026-05-07 18:26 48.60392 19.33282 23988 ft 476 kts 296°
2026-05-07 18:27 48.62126 19.28951 23988 ft 477 kts 296°
2026-05-07 18:27 48.63845 19.24680 23988 ft 477 kts 296°
2026-05-07 18:27 48.65561 19.20426 23987 ft 478 kts 296°
2026-05-07 18:27 48.66723 19.17542 23987 ft 478 kts 296°
2026-05-07 18:28 48.69026 19.11824 23986 ft 479 kts 296°
2026-05-07 18:28 48.70728 19.07587 23986 ft 479 kts 296°
2026-05-07 18:28 48.72477 19.03228 23985 ft 480 kts 296°
2026-05-07 18:28 48.74181 18.98972 23986 ft 479 kts 296°
2026-05-07 18:29 48.75909 18.94663 23990 ft 481 kts 296°
2026-05-07 18:29 48.77936 18.90630 23989 ft 488 kts 308°
2026-05-07 18:29 48.80518 18.87203 23990 ft 496 kts 320°
2026-05-07 18:29 48.83502 18.84585 23994 ft 502 kts 330°
2026-05-07 18:30 48.86652 18.82333 23991 ft 504 kts 332°
2026-05-07 18:30 48.89849 18.80136 23996 ft 503 kts 332°
2026-05-07 18:30 48.93063 18.77926 23995 ft 503 kts 332°
2026-05-07 18:30 48.96215 18.75733 23993 ft 504 kts 332°
2026-05-07 18:31 48.99388 18.73502 23998 ft 503 kts 332°
2026-05-07 18:31 49.02584 18.71235 24002 ft 504 kts 332°
2026-05-07 18:31 49.05728 18.68995 23999 ft 503 kts 331°
2026-05-07 18:31 49.08903 18.66726 24010 ft 502 kts 332°
2026-05-07 18:32 49.12027 18.64484 24010 ft 503 kts 332°
2026-05-07 18:32 49.15208 18.62203 23991 ft 502 kts 332°
2026-05-07 18:32 49.18359 18.59939 24010 ft 503 kts 332°
2026-05-07 18:32 49.21520 18.57663 24009 ft 503 kts 332°
2026-05-07 18:33 49.24651 18.55407 23995 ft 503 kts 332°
2026-05-07 18:33 49.27805 18.53130 24007 ft 503 kts 332°
2026-05-07 18:33 49.30975 18.50837 24001 ft 503 kts 332°
2026-05-07 18:33 49.34126 18.48556 23997 ft 502 kts 332°
2026-05-07 18:34 49.37306 18.46250 24004 ft 502 kts 332°
2026-05-07 18:34 49.40459 18.43961 23997 ft 503 kts 332°
2026-05-07 18:34 49.43584 18.41692 23990 ft 503 kts 332°
2026-05-07 18:34 49.46731 18.39408 23991 ft 503 kts 332°
2026-05-07 18:35 49.49913 18.37090 23995 ft 502 kts 332°
2026-05-07 18:35 49.53075 18.34785 23990 ft 502 kts 331°
2026-05-07 18:35 49.56158 18.32533 23989 ft 502 kts 331°
2026-05-07 18:35 49.59342 18.30202 23986 ft 502 kts 331°
2026-05-07 18:36 49.62478 18.27904 23985 ft 502 kts 331°
2026-05-07 18:36 49.65603 18.25607 23990 ft 502 kts 331°
2026-05-07 18:36 49.68772 18.23278 23981 ft 503 kts 331°
2026-05-07 18:36 49.71902 18.20972 23989 ft 502 kts 331°
2026-05-07 18:37 49.75088 18.18623 23986 ft 503 kts 331°
2026-05-07 18:37 49.78231 18.16300 23976 ft 503 kts 331°
2026-05-07 18:37 49.81382 18.13968 23981 ft 503 kts 331°
2026-05-07 18:37 49.84548 18.11620 23977 ft 503 kts 331°
2026-05-07 18:38 49.87694 18.09283 23983 ft 504 kts 331°
2026-05-07 18:38 49.90850 18.06936 23976 ft 504 kts 331°
2026-05-07 18:38 49.94024 18.04722 23982 ft 506 kts 335°
2026-05-07 18:38 49.97310 18.02763 23968 ft 507 kts 337°
2026-05-07 18:39 50.00634 18.00888 23971 ft 507 kts 337°
2026-05-07 18:39 50.03951 17.99028 23970 ft 507 kts 338°
2026-05-07 18:39 50.07284 17.97135 23981 ft 506 kts 337°
2026-05-07 18:39 50.10593 17.95237 23974 ft 506 kts 337°
2026-05-07 18:40 50.13880 17.93340 23981 ft 505 kts 337°
2026-05-07 18:40 50.17137 17.91454 23988 ft 504 kts 337°
2026-05-07 18:40 50.20454 17.89530 23962 ft 502 kts 337°
2026-05-07 18:40 50.23661 17.87669 23619 ft 495 kts 337°
2026-05-07 18:41 50.26869 17.85804 22820 ft 490 kts 337°
2026-05-07 18:41 50.30060 17.83943 22025 ft 484 kts 337°
2026-05-07 18:41 50.33182 17.82122 21334 ft 476 kts 337°
2026-05-07 18:41 50.36216 17.80296 20654 ft 467 kts 334°
2026-05-07 18:42 50.39100 17.78065 19961 ft 458 kts 329°
2026-05-07 18:42 50.41848 17.75666 19267 ft 451 kts 327°
2026-05-07 18:42 50.44527 17.73256 18566 ft 445 kts 327°
2026-05-07 18:42 50.47179 17.70860 17880 ft 437 kts 327°
2026-05-07 18:43 50.49734 17.68565 17176 ft 416 kts 327°
2026-05-07 18:43 50.52184 17.66367 16245 ft 398 kts 327°
2026-05-07 18:43 50.54504 17.64198 15357 ft 381 kts 326°
2026-05-07 18:43 50.56710 17.62091 14508 ft 366 kts 326°
2026-05-07 18:44 50.58836 17.60050 13691 ft 352 kts 326°
2026-05-07 18:44 50.60865 17.58099 12921 ft 339 kts 326°
2026-05-07 18:44 50.62841 17.56197 12310 ft 323 kts 326°
2026-05-07 18:44 50.64688 17.54423 12001 ft 300 kts 326°
2026-05-07 18:45 50.66454 17.52727 11992 ft 295 kts 326°
2026-05-07 18:45 50.68181 17.51061 11994 ft 295 kts 326°
2026-05-07 18:45 50.69942 17.49361 11990 ft 295 kts 326°
2026-05-07 18:45 50.71680 17.47685 11989 ft 294 kts 326°
2026-05-07 18:46 50.73407 17.46018 11829 ft 292 kts 326°
2026-05-07 18:46 50.75164 17.44321 11161 ft 301 kts 326°
2026-05-07 18:46 50.76979 17.42563 10617 ft 304 kts 326°
2026-05-07 18:46 50.78739 17.40862 10303 ft 299 kts 326°
2026-05-07 18:47 50.80495 17.39166 10031 ft 292 kts 327°
2026-05-07 18:47 50.82214 17.37506 9785 ft 286 kts 326°
2026-05-07 18:47 50.83883 17.35889 9473 ft 282 kts 326°
2026-05-07 18:47 50.85553 17.34268 9119 ft 280 kts 326°
2026-05-07 18:48 50.87203 17.32664 8746 ft 278 kts 326°
2026-05-07 18:48 50.88844 17.31069 8357 ft 273 kts 326°
2026-05-07 18:48 50.90452 17.29503 7724 ft 271 kts 326°
2026-05-07 18:48 50.92038 17.27959 7052 ft 268 kts 326°
2026-05-07 18:49 50.93611 17.26424 6387 ft 265 kts 326°
2026-05-07 18:49 50.95163 17.24909 5722 ft 261 kts 327°
2026-05-07 18:49 50.96660 17.23447 5250 ft 250 kts 327°
2026-05-07 18:49 50.98107 17.22033 4814 ft 240 kts 328°
2026-05-07 18:50 50.99504 17.20668 4397 ft 231 kts 327°
2026-05-07 18:50 51.00671 17.19059 4077 ft 218 kts 308°
2026-05-07 18:50 51.01477 17.17120 3803 ft 206 kts 301°
2026-05-07 18:50 51.02146 17.15176 3552 ft 195 kts 298°
2026-05-07 18:51 51.02750 17.13278 3338 ft 189 kts 297°
2026-05-07 18:51 51.03322 17.11407 3091 ft 189 kts 297°
2026-05-07 18:51 51.03891 17.09524 2963 ft 189 kts 297°
2026-05-07 18:51 51.04458 17.07641 2832 ft 189 kts 297°
2026-05-07 18:52 51.05020 17.05782 2641 ft 182 kts 297°
2026-05-07 18:52 51.05541 17.04060 2392 ft 163 kts 299°
2026-05-07 18:52 51.06008 17.02519 2162 ft 148 kts 299°
2026-05-07 18:52 51.06438 17.01106 1952 ft 136 kts 300°
2026-05-07 18:53 51.06844 16.99775 1759 ft 132 kts 300°
2026-05-07 18:53 51.07247 16.98461 1589 ft 132 kts 299°
2026-05-07 18:53 51.07647 16.97149 1422 ft 132 kts 300°
2026-05-07 18:53 51.08045 16.95846 1260 ft 131 kts 299°
2026-05-07 18:54 51.08444 16.94539 1079 ft 131 kts 299°
2026-05-07 18:54 51.08839 16.93247 906 ft 131 kts 298°
2026-05-07 18:54 51.09237 16.91947 723 ft 130 kts 299°
2026-05-07 18:54 51.09631 16.90644 519 ft 129 kts 298°
2026-05-07 18:55 51.10006 16.89407 400 ft 123 kts 298°
2026-05-07 18:55 51.10298 16.88484 398 ft 49 kts 298°
2026-05-07 18:55 51.10403 16.88139 401 ft 20 kts 295°
2026-05-07 18:55 51.10466 16.87932 402 ft 22 kts 297°
2026-05-07 18:56 51.10539 16.87704 404 ft 23 kts 298°
2026-05-07 18:56 51.10614 16.87480 404 ft 22 kts 296°
2026-05-07 18:56 51.10692 16.87272 405 ft 17 kts 327°
2026-05-07 18:56 51.10775 16.87293 403 ft 6 kts 24°
2026-05-07 18:57 51.10813 16.87320 403 ft 0 kts 25°
2026-05-07 18:57 51.10826 16.87329 402 ft 3 kts 25°
2026-05-07 18:57 51.10896 16.87382 402 ft 16 kts 27°
2026-05-07 18:57 51.10939 16.87533 400 ft 17 kts 109°
2026-05-07 18:58 51.10894 16.87672 401 ft 11 kts 121°
2026-05-07 18:58 51.10850 16.87790 399 ft 13 kts 117°
2026-05-07 18:58 51.10858 16.87851 399 ft 5 kts 32°
2026-05-07 18:58 51.10892 16.87879 399 ft 3 kts 25°
2026-05-07 18:59 51.10904 16.87887 399 ft 0 kts 26°